CW4611 Weather Reports


Display with metric or nautical units.
time (UTC)temp
F
wind
direction
speed
MPH
gust
MPH
rain 1hr
in
rain 24hr
in
rain mn
in
humidity
%
barometer
mb
20220629214605 62 67 2.0 10.0 0.11 0.29 0.15 65 1017.7
20220629214104 65 148 8.0 23.0 0.07 0.25 0.11 59 1017.7
20220629213604 68 171 8.0 26.0 0.03 0.21 0.07 59 1017.2
20220629213105 71 234 0.0 5.0 0.02 0.20 0.06 64 1015.5
20220629211604 74 290 1.0 3.0 0.01 0.19 0.05 53 1013.8
20220629211105 75 288 1.0 7.0 0.00 0.18 0.04 46 1013.9
20220629210605 76 296 0.0 3.0 0.00 0.18 0.04 46 1013.8
20220629210105 76 306 2.0 10.0 0.00 0.18 0.04 45 1013.7
20220629204605 76 320 0.0 5.0 0.00 0.18 0.04 44 1014.0
20220629204104 76 355 0.0 3.0 0.00 0.18 0.04 45 1014.0
20220629203605 76 333 1.0 3.0 0.00 0.18 0.04 43 1014.1
20220629203104 76 222 1.0 3.0 0.00 0.18 0.04 45 1014.4
20220629201605 74 121 1.0 5.0 0.00 0.18 0.04 47 1014.7
20220629201105 74 135 2.0 5.0 0.00 0.18 0.04 48 1014.7
20220629200605 73 126 2.0 5.0 0.00 0.18 0.04 45 1014.9
20220629200105 72 127 4.0 9.0 0.00 0.18 0.04 47 1014.8
20220629194605 70 129 3.0 9.0 0.00 0.18 0.04 55 1015.0
20220629194105 70 115 4.0 7.0 0.00 0.18 0.04 54 1015.2
20220629193604 69 79 3.0 6.0 0.00 0.18 0.04 55 1015.3
20220629193105 69 83 5.0 10.0 0.00 0.18 0.04 55 1015.5
20220629191605 68 94 3.0 6.0 0.00 0.18 0.04 57 1015.7
20220629191104 68 109 3.0 7.0 0.01 0.18 0.04 57 1015.8
20220629190605 67 117 2.0 6.0 0.01 0.18 0.04 62 1015.9
20220629190105 66 81 2.0 7.0 0.02 0.18 0.04 63 1016.0
20220629184605 64 118 3.0 12.0 0.02 0.18 0.04 67 1016.6
20220629184105 64 107 2.0 6.0 0.02 0.18 0.04 70 1016.7
20220629183605 63 355 1.0 3.0 0.02 0.18 0.04 72 1016.8
20220629183105 63 350 1.0 6.0 0.02 0.18 0.04 69 1016.7
20220629181605 68 183 2.0 6.0 0.02 0.18 0.04 60 1017.6
20220629181104 69 173 1.0 7.0 0.01 0.17 0.03 56 1017.2
20220629180604 71 297 5.0 12.0 0.01 0.17 0.03 52 1016.4
20220629180104 73 261 6.0 15.0 0.00 0.16 0.02 45 1015.7
20220629174605 76 251 2.0 7.0 0.00 0.16 0.02 42 1015.1
20220629174105 76 268 0.0 3.0 0.00 0.16 0.02 43 1015.2
20220629173605 76 282 1.0 6.0 0.00 0.16 0.02 42 1015.0
20220629173105 77 216 2.0 7.0 0.00 0.16 0.02 44 1015.1
20220629171605 76 231 2.0 7.0 0.00 0.16 0.02 42 1015.2
20220629171104 77 175 1.0 5.0 0.00 0.16 0.02 43 1015.3
20220629170604 76 210 1.0 6.0 0.00 0.16 0.02 41 1015.2
20220629170105 76 214 2.0 6.0 0.00 0.16 0.02 46 1015.4
20220629164605 75 303 2.0 7.0 0.00 0.16 0.02 43 1015.6
20220629164104 74 275 1.0 3.0 0.00 0.16 0.02 44 1015.6
20220629163604 74 276 0.0 0.0 0.00 0.16 0.02 45 1015.6
20220629163104 73 276 0.0 3.0 0.00 0.16 0.02 42 1015.6
20220629161604 73 256 0.0 0.0 0.00 0.16 0.02 44 1015.6
20220629161104 73 256 0.0 3.0 0.00 0.16 0.02 45 1015.6
20220629160604 73 256 0.0 0.0 0.00 0.16 0.02 50 1015.6
20220629160104 73 256 0.0 5.0 0.00 0.16 0.02 47 1015.7
20220629154605 72 231 1.0 6.0 0.00 0.16 0.02 50 1015.8
20220629154104 71 287 1.0 3.0 0.00 0.16 0.02 48 1015.8
20220629153604 70 32 0.0 2.0 0.00 0.16 0.02 47 1015.8
20220629153104 69 32 0.0 6.0 0.00 0.16 0.02 52 1015.7
20220629151605 67 53 5.0 6.0 0.00 0.16 0.02 52 1015.7
20220629151104 67 17 2.0 5.0 0.00 0.16 0.02 58 1015.7
20220629150604 66 24 2.0 5.0 0.00 0.16 0.02 58 1015.8
20220629150104 65 34 2.0 7.0 0.00 0.16 0.02 60 1015.8
20220629144604 63 62 4.0 10.0 0.01 0.16 0.02 63 1015.8
20220629144109 62 29 3.0 7.0 0.01 0.16 0.02 61 1015.8
20220629143604 61 24 3.0 9.0 0.01 0.16 0.02 65 1015.8
20220629143105 61 49 4.0 10.0 0.01 0.16 0.02 64 1016.0
20220629141605 62 64 5.0 10.0 0.01 0.16 0.02 65 1015.9
20220629141104 62 49 4.0 12.0 0.01 0.16 0.02 64 1015.8
20220629140604 61 12 4.0 12.0 0.01 0.16 0.02 64 1015.9
20220629140104 61 57 5.0 12.0 0.01 0.16 0.02 65 1015.9
20220629134604 60 20 0.0 0.0 0.00 0.15 0.01 71 1015.8
20220629134104 59 20 1.0 5.0 0.00 0.15 0.01 70 1016.0
20220629133604 59 47 3.0 10.0 0.00 0.15 0.01 66 1016.0
20220629133105 59 51 4.0 7.0 0.00 0.15 0.01 67 1016.2
20220629131604 57 51 3.0 6.0 0.00 0.15 0.01 68 1016.2
20220629131104 57 41 4.0 6.0 0.00 0.15 0.01 71 1016.0
20220629130604 56 1 0.0 3.0 0.00 0.15 0.01 75 1016.1
20220629130104 56 0 0.0 0.0 0.00 0.15 0.01 78 1016.0
20220629124604 56 0 0.0 0.0 0.00 0.15 0.01 78 1016.0
20220629124104 56 0 0.0 0.0 0.00 0.15 0.01 78 1016.2
20220629123604 56 0 0.0 0.0 0.00 0.15 0.01 78 1016.7
20220629123104 56 0 0.0 0.0 0.00 0.15 0.01 76 1016.7
20220629121604 56 0 0.0 0.0 0.00 0.15 0.01 73 1016.6
20220629121104 56 0 0.0 0.0 0.00 0.15 0.01 73 1016.5
20220629120605 57 0 0.0 0.0 0.00 0.15 0.01 73 1016.0
20220629120104 57 0 0.0 0.0 0.00 0.15 0.01 73 1016.1
20220629114604 57 0 0.0 0.0 0.00 0.15 0.01 69 1015.3
20220629114104 57 0 0.0 0.0 0.00 0.15 0.01 69 1015.1
20220629113604 57 0 0.0 0.0 0.00 0.15 0.01 68 1014.9
20220629113104 57 0 0.0 0.0 0.00 0.15 0.01 67 1014.9
20220629111604 57 0 0.0 0.0 0.00 0.15 0.01 69 1014.8
20220629111104 57 0 0.0 0.0 0.00 0.15 0.01 67 1014.8
20220629110604 57 0 0.0 0.0 0.00 0.15 0.01 68 1014.8
20220629110104 57 0 0.0 0.0 0.00 0.15 0.01 70 1014.8
20220629104604 58 0 0.0 0.0 0.00 0.15 0.01 67 1014.8
20220629104105 58 0 0.0 0.0 0.00 0.15 0.01 65 1014.7
20220629103603 59 0 0.0 0.0 0.00 0.15 0.01 66 1014.8
20220629103104 59 0 0.0 0.0 0.00 0.15 0.01 64 1014.7
20220629101604 59 0 0.0 0.0 0.00 0.15 0.01 61 1014.5
20220629101104 59 0 0.0 0.0 0.00 0.15 0.01 59 1014.6
20220629100604 59 0 0.0 0.0 0.00 0.15 0.01 62 1014.5
20220629100105 59 0 0.0 0.0 0.00 0.15 0.01 63 1014.6
20220629094604 58 0 0.0 0.0 0.01 0.15 0.01 65 1014.8
20220629094104 59 0 0.0 0.0 0.01 0.15 0.01 64 1014.8
20220629093604 59 0 0.0 0.0 0.01 0.15 0.01 63 1014.7
20220629093104 59 0 0.0 0.0 0.01 0.15 0.01 62 1014.9
20220629091604 59 0 0.0 0.0 0.01 0.15 0.01 62 1015.0
20220629091104 59 0 0.0 0.0 0.01 0.15 0.01 63 1015.0
20220629090604 58 0 0.0 0.0 0.01 0.15 0.01 63 1015.0
20220629090104 58 0 0.0 0.0 0.01 0.15 0.01 64 1015.1
20220629084604 58 0 0.0 0.0 0.00 0.14 0.00 67 1015.2
20220629084104 59 0 0.0 0.0 0.00 0.14 0.00 66 1015.3
20220629083604 59 0 0.0 0.0 0.00 0.14 0.00 62 1015.3
20220629083104 59 0 0.0 0.0 0.00 0.14 0.00 61 1015.3
20220629081604 58 0 0.0 0.0 0.00 0.14 0.00 64 1015.5
20220629080604 58 0 0.0 0.0 0.00 0.14 0.00 65 1015.5
20220629080104 58 0 0.0 0.0 0.00 0.14 0.00 65 1015.5
20220629074605 58 0 0.0 0.0 0.00 0.14 0.00 66 1015.6
20220629074104 58 0 0.0 0.0 0.00 0.14 0.00 66 1015.8
20220629073604 57 0 0.0 0.0 0.00 0.14 0.00 67 1015.6
20220629073104 57 0 0.0 0.0 0.00 0.14 0.00 68 1015.8
20220629071604 56 16 7.0 9.0 0.00 0.14 0.00 71 1016.0
20220629071104 56 103 9.0 9.0 0.00 0.14 0.00 71 1016.0
20220629070604 56 103 6.0 10.0 0.00 0.14 0.00 73 1016.1
20220629070104 56 90 3.0 15.0 0.00 0.14 0.00 72 1015.9
20220629064604 56 54 7.0 15.0 0.00 0.14 0.00 72 1016.1
20220629064104 56 35 7.0 20.0 0.00 0.14 0.00 72 1016.2
20220629063604 56 44 10.0 14.0 0.00 0.14 0.00 74 1016.3
20220629063104 55 85 7.0 17.0 0.00 0.14 0.00 74 1016.4
20220629061604 55 64 8.0 18.0 0.00 0.14 0.00 77 1016.6
20220629061106 55 69 6.0 16.0 0.00 0.14 0.00 77 1016.7
20220629060604 55 36 8.0 20.0 0.01 0.14 0.00 78 1016.8
20220629060104 55 39 10.0 18.0 0.02 0.14 0.00 78 1016.8
20220629054604 56 54 9.0 15.0 0.04 0.14 0.14 76 1017.8
20220629054104 56 60 6.0 12.0 0.04 0.14 0.14 76 1017.8
20220629053604 56 41 5.0 12.0 0.04 0.14 0.14 76 1017.7
20220629053104 56 358 6.0 14.0 0.04 0.14 0.14 75 1017.8
20220629051604 58 24 4.0 9.0 0.04 0.14 0.14 75 1017.5
20220629051104 59 71 3.0 8.0 0.04 0.14 0.14 74 1018.0
20220629050604 59 163 2.0 3.0 0.04 0.14 0.14 72 1018.3
20220629050104 60 259 0.0 7.0 0.02 0.12 0.12 68 1018.8
20220629044603 59 267 6.0 15.0 0.00 0.10 0.10 62 1018.0
20220629044104 59 19 5.0 8.0 0.00 0.10 0.10 62 1016.2
20220629043604 59 7 2.0 7.0 0.00 0.10 0.10 64 1016.1
20220629043104 58 70 3.0 7.0 0.00 0.10 0.10 66 1016.1
20220629041604 59 63 6.0 14.0 0.00 0.10 0.10 64 1016.0
20220629041103 59 27 7.0 14.0 0.00 0.10 0.10 63 1016.1
20220629040604 59 22 5.0 14.0 0.00 0.10 0.10 63 1016.1
20220629040104 59 35 7.0 16.0 0.00 0.10 0.10 63 1016.1
20220629034604 59 41 8.0 16.0 0.00 0.10 0.10 64 1016.2
20220629034104 59 38 6.0 15.0 0.00 0.10 0.10 64 1016.1
20220629033604 59 44 6.0 12.0 0.00 0.10 0.10 63 1016.3
20220629033104 59 63 6.0 16.0 0.00 0.10 0.10 63 1016.3
20220629031604 60 66 8.0 15.0 0.00 0.10 0.10 61 1016.3
20220629031104 61 63 7.0 13.0 0.00 0.10 0.10 59 1016.3
20220629030604 62 104 5.0 10.0 0.00 0.10 0.10 56 1016.3
20220629030103 62 37 5.0 18.0 0.00 0.10 0.10 53 1016.4
20220629024604 60 49 7.0 13.0 0.00 0.10 0.10 59 1016.5
20220629024103 60 69 5.0 10.0 0.00 0.10 0.10 62 1016.5
20220629023604 59 69 5.0 9.0 0.00 0.10 0.10 61 1016.6
20220629023104 59 27 6.0 16.0 0.00 0.10 0.10 65 1016.6
20220629021604 59 47 6.0 13.0 0.02 0.10 0.10 63 1016.7
20220629021103 59 21 6.0 9.0 0.04 0.10 0.10 66 1016.6
20220629020603 58 38 6.0 20.0 0.05 0.10 0.10 66 1016.6
20220629020103 58 26 6.0 20.0 0.07 0.10 0.10 69 1016.7
20220629014604 57 46 7.0 14.0 0.10 0.10 0.10 75 1017.1
20220629014103 57 318 3.0 12.0 0.10 0.10 0.10 75 1017.2
20220629013604 57 69 6.0 15.0 0.10 0.10 0.10 72 1016.9
20220629013104 58 60 14.0 20.0 0.10 0.10 0.10 74 1016.7
20220629011603 62 320 2.0 3.0 0.08 0.08 0.08 68 1018.1
20220629011104 64 252 0.0 0.0 0.06 0.06 0.06 65 1018.3
20220629010603 65 252 1.0 12.0 0.05 0.05 0.05 63 1018.3
20220629010104 67 275 3.0 25.0 0.03 0.03 0.03 60 1018.0
20220629004604 73 231 6.0 16.0 0.00 0.00 0.00 39 1016.0
20220629004104 75 256 6.0 14.0 0.00 0.00 0.00 34 1015.5
20220629003603 75 126 5.0 13.0 0.00 0.00 0.00 32 1014.4
20220629003104 76 106 8.0 17.0 0.00 0.00 0.00 34 1014.2
20220629001604 77 9 0.0 1.0 0.00 0.00 0.00 35 1013.9
20220629001104 77 7 1.0 3.0 0.00 0.00 0.00 31 1013.9
20220629000603 77 5 0.0 1.0 0.00 0.00 0.00 35 1013.9
20220629000103 77 5 0.0 3.0 0.00 0.00 0.00 35 1014.0
20220628234604 77 356 1.0 3.0 0.00 0.00 0.00 34 1014.4
20220628234104 77 300 0.0 2.0 0.00 0.00 0.00 37 1014.4
20220628233603 78 285 0.0 3.0 0.00 0.00 0.00 36 1014.6
20220628233104 78 275 0.0 3.0 0.00 0.00 0.00 34 1014.8
20220628231604 78 184 0.0 6.0 0.00 0.00 0.00 35 1015.1
20220628231104 78 161 1.0 3.0 0.00 0.00 0.00 36 1015.2
20220628230604 78 227 1.0 5.0 0.00 0.00 0.00 34 1015.4
20220628230104 77 179 1.0 10.0 0.00 0.00 0.00 35 1015.5
20220628224604 76 311 1.0 3.0 0.00 0.00 0.00 34 1015.8
20220628224103 76 311 3.0 12.0 0.00 0.00 0.00 32 1015.8
20220628223603 77 288 3.0 13.0 0.00 0.00 0.00 34 1015.8
20220628223104 78 288 6.0 14.0 0.00 0.00 0.00 32 1015.9
20220628221604 80 266 1.0 5.0 0.00 0.00 0.00 33 1015.8
20220628221103 81 215 0.0 2.0 0.00 0.00 0.00 31 1015.8
20220628220603 81 208 0.0 3.0 0.00 0.00 0.00 33 1015.9
20220628220104 82 193 0.0 6.0 0.00 0.00 0.00 31 1016.0